Location: Sungai Apap
(2.6167°N, 113.3833°E)
Time: 16:40:59
(UTC+00:00)

FENGYUN 1C DEB - Visible Passes

Search period start: 07 October 2024 00:00
Search period end: 17 October 2024 00:00
Orbit: 685 x 1039 km, 98.8° (Epoch: 03 October)

Date Brightness Start Highest point End Pass type
(mag) Time Alt. Az. Time Alt. Az. Time Alt. Az.
07 Oct ? 10:39:18 10° ESE 10:42:27 14° ENE 10:45:31 10° NE visible
07 Oct ? 12:16:56 10° S 12:23:05 50° WSW 12:28:55 10° NNW visible
08 Oct ? 12:08:13 10° S 12:14:32 62° WSW 12:20:26 10° NNW visible
09 Oct ? 11:59:33 10° S 12:05:55 76° WSW 12:11:52 10° NNW visible
10 Oct ? 11:50:57 10° SSE 11:57:18 89° E 12:03:12 10° NNW visible
11 Oct ? 11:42:22 10° SSE 11:48:40 73° ENE 11:54:29 10° N visible
12 Oct ? 11:33:50 10° SSE 11:40:00 59° ENE 11:45:41 10° N visible
12 Oct ? 13:18:40 10° WSW 13:20:23 11° WSW 13:22:05 10° W visible
13 Oct ? 11:25:21 10° SSE 11:31:18 47° ENE 11:36:47 10° N visible
13 Oct ? 13:08:36 10° SW 13:11:44 14° WSW 13:14:48 10° WNW visible
14 Oct ? 11:16:56 10° SE 11:22:34 38° ENE 11:27:48 10° NNE visible
14 Oct ? 12:59:05 10° SW 13:03:04 18° WSW 13:06:54 10° WNW visible
15 Oct ? 11:08:35 10° SE 11:13:50 30° ENE 11:18:43 10° NNE visible
15 Oct ? 12:49:47 10° SSW 12:54:23 22° WSW 12:58:46 10° NW visible
16 Oct ? 11:00:19 10° SE 11:05:04 24° ENE 11:09:30 10° NNE visible
16 Oct ? 12:40:36 10° SSW 12:45:40 27° WSW 12:50:26 10° NW visible
